Home   Weather   Saint-Denis   Past weeks

Flag for Réunion (French) Past Weather in Saint-Denis, Réunion (French) — Yesterday and Last 2 Weeks

Now
73 °F

Mild.


Feels Like: 76 °F
Forecast: 72 / 84 °F
Wind: 8 mph from Southeast

Location: Saint-Denis / Gillot

Current Time: Dec 6, 2016 at 12:41:09 am

Latest Report: Dec 6, 2016 at 12:00 am


Visibility: N/A

Pressure: 29.98 "Hg

Humidity: 69%

Dew Point: 63 °F

Location of Saint-DenisLocation

Past Weather in Saint-Denis — Graph

°F

Saint-Denis Temperature Yesterday

Maximum temperature yesterday: 82 °F (at 10:00 am)
Minimum temperature yesterday: 72 °F (at 3:00 am)
Average temperature yesterday: 77 °F

High & Low Weather Summary for the Past Weeks

 TemperatureHumidityPressure
High86 °F (Nov 29, 1:00 pm)94% (Nov 27, 12:00 pm)30.07 "Hg (Nov 27, 12:00 pm)
Low68 °F (Dec 4, 12:00 am)55% (Nov 22, 8:40 am)29.89 "Hg (Dec 2, 4:00 pm)
Average77 °F72%29.99 "Hg
* Reported Nov 20 11:00 pm — Dec 5 11:30 pm, Saint-Denis, Weather by CustomWeather, © 2016

Note: Actual official high and low records may vary slightly from our data, if they occured in-between our weather recording intervals... More about our weather records

Advertising

Saint-Denis Weather History for the Previous 24 Hours

Scroll right to see more
 ConditionsComfort  
Time TempWeatherWind HumidityBarometerVisibility
11:30 pm
Mon, Dec 5
73 °FPassing clouds.12 mph69%30.01 "HgN/A
11:00 pm73 °FMild.12 mph69%30.01 "HgN/A
10:30 pm73 °FMild.12 mph74%30.01 "HgN/A
10:00 pm75 °FMild.12 mph69%30.01 "HgN/A
9:30 pm75 °FMild.10 mph65%30.01 "HgN/A
9:00 pm75 °FPassing clouds.12 mph69%30.01 "HgN/A
8:30 pm75 °FPassing clouds.10 mph69%30.01 "HgN/A
8:00 pm75 °FPartly cloudy.8 mph65%29.98 "HgN/A
7:30 pm75 °FOvercast.9 mph69%29.98 "HgN/A
7:00 pm77 °FMostly cloudy.8 mph65%29.98 "HgN/A
6:30 pm77 °FOvercast.13 mph65%29.98 "HgN/A
6:00 pm77 °FOvercast.13 mph65%29.95 "HgN/A
5:30 pm79 °FScattered clouds.12 mph61%29.95 "HgN/A
5:00 pm79 °FScattered clouds.14 mph61%29.95 "HgN/A
4:30 pm79 °FScattered clouds.15 mph61%29.95 "HgN/A
4:00 pm79 °FScattered clouds.15 mph61%29.95 "HgN/A
3:30 pm79 °FScattered clouds.16 mph61%29.95 "HgN/A
3:00 pm81 °FScattered clouds.15 mph58%29.95 "HgN/A
2:30 pm81 °FPassing clouds.16 mph58%29.95 "HgN/A
2:00 pm82 °FPassing clouds.16 mph55%29.95 "HgN/A
1:19 pm82 °FPassing clouds.21 mph55%29.95 "HgN/A
12:30 pm82 °FPassing clouds.18 mph58%29.98 "HgN/A
12:00 pm82 °FPassing clouds.20 mph58%29.98 "HgN/A
11:30 am82 °FPassing clouds.20 mph58%29.98 "HgN/A
11:00 am82 °FPassing clouds.21 mph58%29.98 "HgN/A
10:00 am82 °FPassing clouds.17 mph58%29.98 "HgN/A
9:30 am81 °FPassing clouds.18 mph58%29.98 "HgN/A
9:00 am81 °FPassing clouds.17 mph58%29.98 "HgN/A
8:30 am81 °FPassing clouds.18 mph58%29.98 "HgN/A
8:00 am79 °FPassing clouds.16 mph61%29.98 "HgN/A
7:41 am79 °FPassing clouds.18 mph61%29.98 "HgN/A
7:00 am77 °FPassing clouds.14 mph65%29.98 "HgN/A
6:30 am75 °FPassing clouds.5 mph69%29.98 "HgN/A
6:00 am73 °FPassing clouds.7 mph74%29.98 "HgN/A
5:30 am73 °FMild.9 mph74%29.95 "HgN/A
5:00 am73 °FMild.10 mph74%29.95 "HgN/A
4:30 am72 °FMild.8 mph78%29.95 "HgN/A
4:00 am72 °FMild.6 mph73%29.95 "HgN/A
3:30 am73 °FMild.10 mph69%29.95 "HgN/A
3:00 am72 °FPassing clouds.10 mph73%29.95 "HgN/A
2:30 am73 °FPassing clouds.9 mph74%29.95 "HgN/A
2:00 am75 °FPassing clouds.12 mph65%29.95 "HgN/A
1:30 am75 °FPassing clouds.12 mph65%29.98 "HgN/A
1:00 am75 °FPassing clouds.12 mph65%29.98 "HgN/A
12:30 am75 °FPassing clouds.13 mph65%29.98 "HgN/A
12:00 am75 °FPassing clouds.16 mph69%30.01 "HgN/A
Weather by CustomWeather, © 2016

See weather overviewHow to use our weather pages